Location: La Charse
(46.0920°N, 1.9637°E)
Time: 11:52:20
(UTC+00:00)

Daily predictions for brighter satellites

Satellite Brightness Start Highest point End
(mag) Time Altitude Azimuth Time Altitude Azimuth Time Altitude Azimuth
BREEZE-M DEB (TANK) 3.5 19:50:30 10° SSW 19:53:32 37° SE 20:01:44 10° ENE
BREEZE-M DEB (TANK) 3.3 19:56:29 10° WNW 19:59:19 76° NNE 20:06:56 10° ESE
MOS 1 4.3 19:54:37 10° SSE 20:00:17 84° ENE 20:05:58 10° NNW
Cosmos 1538 Rocket 4.5 19:56:06 10° S 20:00:56 40° ESE 20:05:44 10° NE
Resurs 01 Rocket 1.9 19:59:39 10° SSE 20:03:57 52° ENE 20:08:18 10° N
Cosmos 2151 4.0 20:02:02 10° SSE 20:05:39 28° E 20:09:19 10° NNE
ERS-2 2.3 20:02:31 10° NNE 20:06:06 52° E 20:09:39 10° S
Cosmos 44 Rocket 3.9 20:01:24 10° SW 20:06:34 69° NW 20:11:50 10° NNE
Cosmos 2098 Rocket 2.9 20:04:01 10° SSE 20:06:55 39° E 20:10:18 10° NNE
Gbstr 26 Del rocket 3.5 20:04:41 10° WNW 20:08:17 46° NNE 20:12:05 10° E
USA 186 4.3 20:10:38 10° SW 20:12:54 19° W 20:15:03 10° NW
Ariane Rocket 3.2 20:13:16 10° S 20:18:21 76° WSW 20:23:27 10° NNW
SL-16 R/B 3.1 20:17:59 10° NNW 20:23:14 37° NE 20:28:03 12° ESE
Cosmos 1782 4.2 20:24:07 10° NNE 20:27:28 24° ENE 20:30:03 14° ESE
Cosmos 371 Rocket 3.3 20:23:19 10° NNW 20:28:09 85° ENE 20:32:51 11° SSE
ARIANE 5 R/B 3.8 20:26:51 13° ESE 20:30:14 29° ENE 20:34:05 10° N
Cosmos 1271 Rocket 3.5 20:30:21 10° N 20:34:07 38° ENE 20:36:55 16° SE
USA 276 2.5 20:32:49 10° WNW 20:35:58 60° NNE 20:38:32 14° E
SPOT 1/Viking Rocket 3.6 20:31:18 11° SSE 20:36:17 67° ENE 20:41:29 10° N
BREEZE-M DEB (TANK) 2.3 20:34:15 10° WNW 20:37:07 83° SSW 20:43:14 13° ESE
Cosmos 1076 Rocket 3.7 20:33:41 10° SSW 20:38:00 77° W 20:42:24 10° N
Cosmos 1697 Rocket 4.4 20:34:32 10° NW 20:39:22 30° WSW 20:44:11 10° SSW
OBJECT-B 3.9 20:39:41 10° WSW 20:40:57 12° W 20:42:12 10° WNW
Cosmos 1151 Rocket 4.1 20:37:17 10° NNE 20:41:07 29° ENE 20:43:40 17° ESE
ATLAS 5 CENTAUR R/B 4.5 20:38:22 10° NNW 20:41:11 15° NNE 20:44:16 10° NE
ATLAS 2AS CENTAUR R/B 3.8 20:36:28 10° WSW 20:44:14 57° NW 20:51:48 10° NE
Cosmos 923 Rocket 4.4 20:42:13 10° S 20:47:16 45° ESE 20:52:21 10° NNE
ATLAS 3B R/B 3.1 20:43:21 10° NW 20:50:24 68° WSW 20:56:42 15° SSE
Terra 3.0 20:47:56 16° ESE 20:50:50 29° ENE 20:54:56 10° N
SPOT 5 3.3 20:50:48 19° SE 20:53:25 39° ENE 20:57:30 10° N
USA 267 4.3 20:50:26 10° ENE 20:55:18 22° SE 20:59:02 14° SSE
Cosmos 2082 Rocket 3.3 20:50:13 10° SW 20:55:39 48° WNW 21:01:09 10° NNE
Cosmos 1092 Rocket 4.0 20:49:42 10° S 20:55:56 75° E 21:02:15 10° NNE
Meteor 2-19 Rocket 4.4 20:50:00 10° S 20:56:03 85° E 21:02:08 10° N
Cosmos 1633 4.2 20:54:06 10° SW 20:57:27 35° WNW 21:00:49 10° N
Cosmos 2278 4.5 20:54:02 10° NW 20:59:27 48° WSW 21:04:37 11° S
BREEZE-M DEB (TANK) 2.6 20:59:13 10° W 21:01:46 47° NNW 21:03:12 14° ENE
ERS-1 Rocket 3.3 21:00:35 21° SE 21:03:48 53° ENE 21:08:42 10° N
Cosmos 332 Rocket 3.9 21:00:35 10° NNW 21:05:29 73° WSW 21:08:59 19° S
SL-27 R/B 4.2 21:06:23 17° E 21:06:23 17° E 21:08:27 10° NE
Cosmos 2360 Rocket 3.1 21:01:24 10° NNW 21:06:37 37° NE 21:10:08 19° ESE
Cosmos 158 Rocket 4.1 21:02:00 10° SSW 21:07:09 77° WNW 21:12:28 10° NNE
NOSS 2-1 (D) 4.4 21:08:18 19° E 21:08:18 19° E 21:09:52 10° ENE
Cosmos 2026 Rocket 4.0 21:02:34 10° S 21:08:54 76° E 21:15:11 10° NNE
GP-B 3.0 21:08:43 10° N 21:13:12 82° E 21:16:14 20° S
ISS -3.0 21:11:48 10° WNW 21:14:59 39° SW 21:15:56 31° S
Cosmos 2333 Rocket 3.7 21:12:21 10° N 21:16:57 25° NE 21:20:38 14° E
Spot 2 Rocket 3.5 21:14:48 20° S 21:18:23 81° WSW 21:23:32 10° NNW
Meteor 1-26 Rocket 4.4 21:13:38 10° NNW 21:19:36 78° W 21:23:54 19° S
Cosmos 1371 Rocket 4.4 21:15:16 10° NNW 21:20:34 55° ENE 21:23:22 27° SE
Cosmos 2112 Rocket 4.1 21:17:49 17° S 21:21:52 58° ESE 21:27:02 10° NNE
Cosmos 1812 3.1 21:18:07 10° N 21:21:53 47° ENE 21:23:04 34° SE
Cosmos 1680 Rocket 3.5 21:17:27 12° S 21:22:20 68° ESE 21:27:35 10° NNE
Cosmos 220 Rocket 4.2 21:19:42 10° NNW 21:24:01 61° ENE 21:25:50 33° SE
CZ-2C R/B 4.2 21:20:36 10° N 21:25:04 58° WNW 21:29:26 10° SSW
Okean 3 Rocket 3.5 21:24:58 26° S 21:27:28 72° E 21:31:59 10° NNE
Cosmos 1980 Rocket 4.1 21:23:14 10° NW 21:27:35 23° WSW 21:31:56 10° SSW
USA 234 4.3 21:24:19 10° E 21:30:22 42° NNE 21:36:26 10° NW
Cosmos 2322 Rocket 2.2 21:33:20 10° NNW 21:39:00 84° WSW 21:41:46 31° SSE
Resurs 01 Rocket 4.1 21:37:50 10° SW 21:40:46 17° W 21:43:43 10° NW
Cosmos 1408 Rocket 3.7 21:40:12 40° SE 21:41:21 52° E 21:45:35 10° NNE
Meteor 2-14 Rocket 4.4 21:43:59 23° S 21:47:58 83° E 21:54:09 10° N
Cosmos 2084 3.2 21:48:52 27° SSW 21:51:01 76° SE 21:55:11 10° NE
Cosmos 1553 Rocket 3.9 21:46:13 10° N 21:52:19 82° W 21:55:36 29° S
CZ-4B DEB 4.0 21:53:29 84° E 21:53:32 84° ENE 21:56:42 10° N
Gbstr 26 Del rocket 3.1 21:51:26 10° WNW 21:55:04 47° SW 21:55:26 45° SSW
Cosmos 2266 Rocket 4.1 21:53:29 34° SSE 21:55:57 54° E 22:02:00 10° NNE
Cosmos 1862 3.2 21:57:03 47° SSW 21:58:09 84° W 22:02:09 10° N
Cosmos 2219 Rocket 3.1 21:55:19 10° NNW 22:00:33 39° NE 22:02:58 26° ESE
Cosmos 1624 Rocket 4.0 21:55:52 10° NNW 22:01:05 78° WSW 22:02:57 41° S
NOSS 2-1 (E) 2.8 22:05:22 80° NE 22:05:22 80° NE 22:08:37 10° NE
Cosmos 2228 Rocket 3.8 22:01:20 10° N 22:05:28 38° ENE 22:06:05 36° E
Cosmos 1515 Rocket 3.5 22:01:13 10° N 22:05:41 88° W 22:06:43 53° S
H-2A R/B 3.3 22:02:12 10° NNE 22:06:25 78° ESE 22:07:14 57° S
ARIANE 5 R/B 4.1 22:04:24 20° SW 22:06:37 31° W 22:10:35 10° NNW
SL-16 R/B 3.1 22:02:07 10° NW 22:07:21 39° WSW 22:09:55 25° SSW
NOSS 3-1 (C) 4.2 22:02:14 10° NW 22:09:36 70° NE 22:14:30 28° SE
COSMOS 2455 3.2 22:09:10 39° SE 22:10:11 42° ESE 22:15:49 10° NE
Cosmos 2333 4.4 22:04:42 10° NNW 22:10:16 62° ENE 22:12:13 39° ESE
Cosmos 2237 4.4 22:06:02 10° NNW 22:11:40 62° WSW 22:13:45 38° S
USA 276 4.0 22:09:13 10° W 22:10:46 22° WSW 22:10:46 22° WSW
Cosmos 1420 Rocket 3.9 22:06:45 10° NNW 22:12:07 88° ENE 22:13:43 47° SSE
COSMOS 2428 3.5 22:09:55 10° NNW 22:15:19 42° NE 22:17:35 29° ESE
Cosmos 1655 Rocket 4.0 22:12:44 34° S 22:15:46 85° E 22:22:13 10° N
S3M 4.1 22:16:15 10° NNW 22:22:37 73° W 22:25:25 36° S
Spot 4 4.4 22:21:45 40° ESE 22:22:44 45° ENE 22:27:20 10° N
USA 229 DEB 4.3 22:16:37 10° NW 22:23:46 57° NE 22:28:16 25° ESE
USA 229 4.3 22:16:42 10° NW 22:23:51 56° NE 22:28:23 25° ESE
ATLAS 5 CENTAUR R/B 3.2 22:22:05 10° NNW 22:27:11 40° NE 22:30:39 22° E
Cosmos 1174 4.2 22:24:19 10° NW 22:26:29 44° NW 22:26:29 44° NW
Terra 3.0 22:26:49 27° SW 22:28:29 35° W 22:32:52 10° NNW
COSMOS 2487 3.9 22:31:49 29° NE 22:31:49 29° NE 22:33:45 10° NNE
Cosmos 1452 Rocket 3.6 22:26:23 10° NNW 22:31:38 68° ENE 22:32:49 51° SE
SPOT 5 4.5 22:30:02 17° WSW 22:31:41 21° W 22:35:04 10° NW
ALOS 2 3.7 22:33:57 32° E 22:34:27 33° ENE 22:38:23 10° N
USA 267 3.1 22:32:26 10° NE 22:39:01 76° SE 22:45:33 10° SW
SL-27 R/B 4.0 22:39:50 28° W 22:40:46 33° WNW 22:44:04 10° N
Meteor 1-27 Rocket 3.8 22:37:03 10° NNW 22:42:41 74° W 22:44:14 49° SSW
NOSS 3-1 (A) 4.2 22:36:54 10° NW 22:44:19 71° NE 22:48:48 31° SE
Cosmos 1805 Rocket 3.4 22:49:13 82° SE 22:49:21 85° E 22:53:49 10° N
Cosmos 2360 Rocket 3.0 22:45:26 10° NW 22:50:37 39° WSW 22:51:53 34° SW
IRIDIUM 104 4.4 22:46:01 10° N 22:51:15 74° W 22:52:18 55° SSW
Meteor 1-20 Rocket 4.1 22:54:51 59° SSE 22:55:50 73° E 23:01:31 10° NNE
Cosmos 1110 Rocket 4.2 22:52:24 10° NNW 22:57:42 60° ENE 22:58:40 51° ESE
Cosmos 1500 Rocket 4.5 22:59:40 37° WSW 23:00:35 42° WNW 23:04:48 10° N
Cosmos 2333 Rocket 2.2 22:56:06 10° NNW 23:01:42 65° WSW 23:02:38 56° SSW
Cosmos 1331 Rocket 4.2 22:57:55 10° NNW 23:03:07 60° ENE 23:03:58 53° ESE
Cosmos 1244 Rocket 4.4 23:03:47 54° SSE 23:05:07 70° E 23:11:17 10° NNE
Cosmos 972 Rocket 4.3 23:07:27 44° SW 23:08:56 63° WNW 23:13:57 10° NNE
COBE Rocket 4.1 23:09:07 52° WSW 23:09:24 53° W 23:14:00 10° NNW
Cosmos 2322 3.9 23:06:18 10° NNW 23:11:54 57° WSW 23:12:44 52° SW
USA 234 3.2 23:10:02 36° ESE 23:12:59 85° NNE 23:19:34 10° NW
NOSS 0 Rocket 4.1 23:08:00 10° NNW 23:14:14 68° ENE 23:16:01 46° ESE
Cosmos 2297 Rocket 3.2 23:17:11 31° E 23:17:11 31° E 23:21:51 10° NE
Cosmos 468 4.5 23:16:08 61° SW 23:17:00 78° WNW 23:22:16 10° NNE
Lacrosse 5 3.4 23:21:59 23° E 23:21:59 23° E 23:24:24 10° ENE
Cosmos 2322 Rocket 4.4 23:19:50 10° WNW 23:22:06 13° W 23:23:35 11° WSW
Cosmos 2237 Rocket 2.8 23:16:51 10° NNW 23:22:24 50° ENE 23:24:02 39° ESE
Cosmos 2084 Rocket 4.3 23:19:36 10° NNW 23:23:38 43° NE 23:24:07 41° ENE
Meteor 1-18 Rocket 4.2 23:20:05 10° N 23:25:59 82° E 23:26:57 63° SSE
Cosmos 1500 3.9 23:26:57 49° NNE 23:26:57 49° NNE 23:29:54 10° NNE
Cosmos 1470 Rocket 4.3 23:29:03 43° ENE 23:29:03 43° ENE 23:32:37 10° NNE
Cosmos 2227 Rocket 3.3 23:28:53 29° E 23:28:53 29° E 23:33:26 10° NE
Sich 1 3.6 23:28:46 47° W 23:28:55 47° WNW 23:33:08 10° N
Cosmos 2285 Rocket 4.3 23:25:21 10° NNW 23:31:24 50° WSW 23:32:33 45° SW
Meteor 1-25 Rocket 4.4 23:30:16 50° SW 23:31:29 63° WNW 23:37:02 10° N
Okean 1 3.8 23:28:25 10° NNW 23:31:46 56° NW 23:31:46 56° NW
Cosmos 1633 Rocket 3.1 23:33:06 75° N 23:33:06 75° N 23:37:08 10° N
Cosmos 494 Rocket 4.0 23:33:17 60° WSW 23:33:59 69° WNW 23:39:07 10° NNE
Cosmos 1666 Rocket 3.7 23:37:07 67° WNW 23:37:07 67° WNW 23:41:24 10° N
Cosmos 2219 Rocket 3.0 23:39:23 10° NW 23:44:27 36° WSW 23:44:40 36° WSW
SL-08 R/B 4.4 23:45:17 57° SSW 23:46:37 80° W 23:52:50 10° N
Meteor 1-19 Rocket 4.4 23:43:27 10° NNW 23:48:57 55° W 23:49:32 52° WSW
SL-16 R/B 3.6 23:44:29 10° NNW 23:49:34 32° NE 23:52:42 19° ESE
Cosmos 1269 Rocket 4.1 23:50:05 62° ESE 23:50:09 62° ESE 23:55:23 10° NNE
PSLV R/B 4.2 23:47:44 10° NNE 23:52:12 51° E 23:52:12 51° E
Resurs 1-4 Rocket 4.4 23:52:43 10° ENE 23:54:01 11° E 23:55:13 10° E
